Location: Unspecified
(50.7693°N, 0.0000°E)
Time: 09:36:19
(UTC+00:00)

Transit 4A - Pass Details

Date: 04 July 2019
Orbit: 862 x 982 km, 66.8° (Epoch: 17 July)

Event Time Altitude Azimuth Distance (km) Brightness Sun altitude
Rises 03:50:00 0° 155° (SSE) 3,630 10.8 -1.2°
Reaches altitude 10° 03:53:44 10° 133° (SE) 2,708 10.5 -0.7°
Maximum altitude 03:57:03 15° 101° (E) 2,389 10.7 -0.3°
Drops below altitude 10° 04:00:23 10° 70° (ENE) 2,738 12.0 0.1°
Sets 04:04:11 0° 48° (NE) 3,696 14.2 0.6°
